Date,TemperatureHighF,TemperatureAvgF,TemperatureLowF,DewpointHighF,DewpointAvgF,DewpointLowF,HumidityHigh,HumidityAvg,HumidityLow,PressureMaxIn,PressureMinIn,WindSpeedMaxMPH,WindSpeedAvgMPH,GustSpeedMaxMPH,PrecipitationSumIn
2013-2-1,30,27,21,20,12,6,77,53,38,30.31,29.84,10,5,17,0.00
2013-2-2,27,22,16,22,12,7,92,63,43,30.34,30.06,8,3,12,0.00
2013-2-3,30,25,20,25,21,18,95,86,70,30.06,29.84,5,1,9,0.02
2013-2-4,30,25,20,22,14,11,88,65,47,30.05,29.88,10,4,21,0.00
2013-2-5,32,29,25,29,26,22,94,89,84,29.99,29.91,3,0,6,0.00
2013-2-6,39,30,21,29,24,19,96,80,53,30.38,29.95,8,2,14,0.04
2013-2-7,34,27,19,23,19,16,91,73,51,30.51,30.31,5,1,7,0.00
2013-2-8,34,32,30,33,30,23,96,90,75,30.31,29.71,5,2,14,0.25
2013-2-9,33,27,19,31,19,10,97,72,48,30.41,29.80,10,5,23,0.01
2013-2-10,38,24,11,25,16,8,91,71,40,30.52,30.33,3,1,7,0.06
2013-2-11,46,36,30,46,34,24,99,94,78,30.34,29.69,5,0,5,0.24
2013-2-12,45,38,27,35,28,24,98,67,50,30.01,29.79,10,4,20,0.02
2013-2-13,42,32,22,32,27,20,96,82,58,30.00,29.71,3,0,6,0.00
2013-2-14,45,34,27,33,30,25,98,86,55,30.04,29.75,5,1,7,0.20
2013-2-15,55,38,24,36,30,23,97,77,45,30.04,29.94,6,2,11,0.04
2013-2-16,37,34,29,33,27,14,100,78,53,30.01,29.80,5,2,10,0.05
2013-2-17,31,27,20,14,9,2,54,47,40,30.09,29.76,11,7,25,0.00
2013-2-18,36,25,18,20,11,4,82,56,38,30.34,30.10,9,4,26,0.00
2013-2-19,44,33,21,42,30,18,96,87,56,30.22,29.73,8,2,11,0.32
2013-2-20,35,29,24,28,16,11,76,58,48,30.07,29.80,11,7,21,0.00
2013-2-21,35,28,24,18,16,12,69,59,48,30.34,30.05,10,6,18,0.00
2013-2-22,37,30,22,30,22,15,86,73,61,30.43,30.27,5,1,8,0.00
2013-2-23,44,38,32,43,36,30,98,96,86,30.28,29.83,4,0,8,0.19
2013-2-24,45,37,28,39,31,22,98,80,60,30.05,29.80,9,3,15,0.01
2013-2-25,44,33,23,30,26,21,94,76,53,30.26,30.05,5,1,7,0.00
2013-2-26,44,34,23,36,30,22,96,85,64,30.28,29.83,9,3,14,0.45
2013-2-27,51,42,37,46,40,36,98,91,72,29.83,29.53,9,3,17,0.32
2013-2-28,45,40,33,37,33,27,97,80,51,29.68,29.59,6,2,11,0.00